Regional Weather Roundup
Issued by NWS Boston, MA

Home | Current Version | Previous Version | Text Only | Print | Product List | Glossary On
Versions: 1 2 3 4 5 6 7 8 9 10 11 12 13 14 15 16 17 18 19 20 21 22 23 24 25 26 27 28 29 30 31 32 33 34 35 36 37 38 39 40 41 42 43 44 45 46 47 48 49 50
000
ASUS41 KBOX 230010
RWRBOX

REGIONAL WEATHER ROUNDUP
NATIONAL WEATHER SERVICE TAUNTON MA
800 PM EDT FRI AUG 22 2014

NOTE:  "FAIR" INDICATES FEW OR NO CLOUDS BELOW 12,000 FEET WITH NO
SIGNIFICANT WEATHER AND/OR OBSTRUCTIONS TO VISIBILITY.  THE FOLLOWING
OBSERVATION LOCATIONS DO NOT REPORT PRESENT WEATHER...PROVINCETOWN...
SMITHFIELD...BLOCK ISLAND...KEENE...AND OXFORD.

MAZALL-230100-
EASTERN MASSACHUSETTS

CITY           SKY/WX    TMP DP  RH WIND       PRES   REMARKS
BOSTON         CLOUDY    66  62  87 NE10      30.10S
6HR MIN TEMP:  66; 6HR MAX TEMP:  72;

BEVERLY        CLOUDY    65  61  87 NE5       30.10S
LAWRENCE       CLOUDY    63  61  93 NE8       30.14R
BEDFORD        CLOUDY    65  61  87 NE7       30.09S
BLUE HILL        N/A     63  62  97 NE10      30.10R
NORWOOD        CLOUDY    66  62  87 NE8       30.09S
MARSHFIELD     PTCLDY    66  64  94 NE6       30.11S
PLYMOUTH       MOCLDY    66  61  84 NE7       30.09S
TAUNTON        CLOUDY    67  60  78 NE5       30.08R
NEW BEDFORD    MOCLDY    67  61  81 NE9       30.07R
$$

MAZALL-230100-
CAPE COD AND THE ISLANDS

CITY           SKY/WX    TMP DP  RH WIND       PRES   REMARKS
FALMOUTH       CLOUDY    66  63  88 NE7       30.08S
HYANNIS        CLOUDY    67  61  81 NE6       30.07R
CHATHAM        PTCLDY    67  61  81 VRB6      30.09R
PROVINCETOWN   PTCLDY    64  63  94 MISG      30.09S
NANTUCKET      MOCLDY    65  61  87 NE10      30.06R
MARTHAS VNYRD  PTCLDY    66  59  78 NE8       30.07R
$$

MAZALL-230100-
CENTRAL AND WESTERN MASSACHUSETTS

CITY           SKY/WX    TMP DP  RH WIND       PRES   REMARKS
WORCESTER      CLOUDY    64  60  87 NE8       30.12R
6HR MIN TEMP:  64; 6HR MAX TEMP:  68;

FITCHBURG      CLOUDY    67  60  78 NE3       30.12S
ORANGE         CLOUDY    65  60  84 NE6       30.11R
SPRINGFIELD    CLOUDY    64  63  96 NE2       30.09R
WESTFIELD      CLOUDY    66  63  90 N5        30.09R
NORTH ADAMS    CLOUDY    65  59  81 E7        30.10R
PITTSFIELD     CLOUDY    63  59  87 E3        30.10R
$$

RIZALL-230100-
RHODE ISLAND

CITY           SKY/WX    TMP DP  RH WIND       PRES   REMARKS
PROVIDENCE     MOCLDY    69  59  70 NE12      30.08R
6HR MIN TEMP:  69; 6HR MAX TEMP:  74; 6HR PCP: TRACE;

NEWPORT        PTCLDY    69  59  70 NE9       30.06S
BLOCK ISLAND   MOCLDY    68  59  73 E7        30.06R
SMITHFIELD     MOCLDY    66  55  68 NE5       30.09R
WESTERLY       CLOUDY    69  61  75 CALM      30.07R
$$

CTZALL-230100-
CONNECTICUT

CITY           SKY/WX    TMP DP  RH WIND       PRES   REMARKS
BRADLEY INTL   CLOUDY    67  63  87 N3        30.08R
6HR MIN TEMP:  67; 6HR MAX TEMP:  71; 6HR PCP:  0.01;

HARTFORD       CLOUDY    66  63  90 N5        30.07R
BRIDGEPORT     CLOUDY    71  64  78 E10       30.05S
DANBURY        CLOUDY    68  60  75 E5        30.08R
GROTON         CLOUDY    68  62  81 NE3       30.06R
NEW HAVEN      CLOUDY    71  63  75 E6        30.06S
CHESTER        CLOUDY    66  64  94 NE3       30.08S
MERIDEN        CLOUDY    70  61  73 NE6       30.07R
WILLIMANTIC    CLOUDY    68  63  84 N3        30.08R
$$

MEZ002-015-021-024-NHZ003-005-008-011-012-014-VTZ005-008-230100-
NORTHERN NEW ENGLAND

CITY           SKY/WX    TMP DP  RH WIND       PRES   REMARKS
PORTLAND ME    MOCLDY    61  55  81 NE3       30.14S
6HR MIN TEMP:  61; 6HR MAX TEMP:  66;

BANGOR ME      MOCLDY    68  56  65 E5        30.14S
CONCORD NH     CLOUDY    64  58  80 NE3       30.13R
MANCHESTER NH  CLOUDY    66  59  78 NE5       30.11R
NASHUA NH      CLOUDY    66  61  84 NE6       30.12S
PORTSMOUTH NH  MOCLDY    64  58  82 NE6       30.12S
JAFFREY NH     CLOUDY    62  60  93 CALM      30.14S
KEENE NH       CLOUDY    64  55  72 CALM      30.12S
BURLINGTON VT  CLOUDY    64  61  90 SW6       30.12R
MT. WASHINGTON LGT RAIN  46  46 100 E17         N/A  VSB 0
$$

NYZ052-076-230100-
EASTERN NEW YORK

CITY           SKY/WX    TMP DP  RH WIND       PRES   REMARKS
ALBANY         CLOUDY    66  59  78 E5        30.08R
6HR MIN TEMP:  64; 6HR MAX TEMP:  68; 6HR PCP:  0.12;

NEW YORK CITY  CLOUDY    71  59  65 NE6       30.03S
6HR MIN TEMP:  67; 6HR MAX TEMP:  76; 6HR PCP:  0.04;

$$

ANZALL-230100-
MARINE OBSERVATIONS

STATION/POSITION TIME  TEMP    WIND        PRES    VSBY  WAVE
                       AIR SEA DIR/SP/G                  HT/PER
                 (UTC) (F)     (DEG/KT/KT) (MB)    (MI)  (FT/S)
BOSTON BUOY      2350   65 67   50/ 10/ 12 1019.3R         3/ 7
BUZZARDS BAY     NOT AVBL
NANTUCKET SOUND  2350   68 71   40/ 14/ 16 1017.7R         2/ 6
MASS BAY-STELLWA 2304   66 67   50/ 10/ 10   N/A    1 7/8  3/ 5
ISLE OF SHOALS   0000   63      30/  9/ 10 1019.5S
S OF BLOCK IS    2308      68                N/A           3/ 7
$$

......................KEY.........................
  SKY/WX - SKY CONDITION/PRESENT WEATHER
  TMP    - TEMPERATURE IN FAHRENHEIT
  DWPT   - DEWPOINT IN FAHRENHEIT
  RH     - RELATIVE HUMIDITY IN PERCENT
  WIND   - DIRECTION AND SPEED IN MPH
  PRES   - MEAN SEA LEVEL PRESSURE IN INCHES OF HG
  WCI    - WIND CHILL INDEX
  VSB    - VISIBILITY IN MILES
  HX     - HEAT INDEX
  TC     - TEMPERATURE IN CELSIUS
  VRB    - VARIABLE WIND DIRECTION
  N/A    - NOT AVAILABLE


USA.gov is the U.S. government's official web portal to all federal, state and local government web resources and services.